Location: Unspecified
(0.0000°N, 0.0000°E)
Time: 05:19:05
(UTC+00:00)

Altair - Visible Passes

Search period start: 25 May 2016 00:00
Search period end: 04 June 2016 00:00
Orbit: 1502 x 1682 km, 47.2° (Epoch: 24 May)

Date Brightness Start Highest point End Pass type
(mag) Time Alt. Az. Time Alt. Az. Time Alt. Az.
25 May 8.9 21:10:50 10° N 21:14:56 23° NNE 21:14:56 23° NNE visible
26 May 8.8 20:46:01 10° N 20:51:10 24° NNE 20:51:10 24° NNE visible
26 May 9.7 22:48:53 10° NW 22:49:12 11° NW 22:49:12 11° NW visible
27 May 8.7 20:21:15 10° N 20:27:28 23° NE 20:27:28 23° NE visible
27 May 9.4 22:23:39 10° NW 22:25:29 18° NW 22:25:29 18° NW visible
28 May 8.8 19:56:33 10° N 20:03:08 20° NE 20:03:47 20° NE visible
28 May 9.0 21:58:25 10° NW 22:01:49 26° NW 22:01:49 26° NW visible
29 May 8.9 19:31:57 10° N 19:37:53 18° NE 19:40:10 16° ENE visible
29 May 8.5 21:33:14 10° NW 21:38:12 36° NW 21:38:12 36° NW visible
30 May 9.0 19:07:28 10° NNE 19:12:38 15° NE 19:16:35 12° ENE visible
30 May 8.0 21:08:04 10° NW 21:14:37 50° NNW 21:14:37 50° NNW visible
31 May 9.1 18:43:12 10° NNE 18:47:21 13° NE 18:51:26 10° ENE visible
31 May 7.6 20:42:56 10° NW 20:51:06 64° N 20:51:06 64° N visible
01 Jun 9.2 18:19:22 10° NNE 18:22:03 11° NE 18:24:44 10° ENE visible
01 Jun 7.4 20:17:50 10° NNW 20:27:25 67° NE 20:27:36 67° ENE visible
01 Jun 9.6 22:24:41 10° W 22:25:39 13° W 22:25:39 13° W visible
02 Jun 7.5 19:52:45 10° NNW 20:02:15 60° NE 20:04:09 52° E visible
02 Jun 9.2 21:59:02 10° WNW 22:02:12 20° W 22:02:12 20° W visible
03 Jun 7.7 19:27:42 10° NNW 19:37:06 53° NE 19:40:45 37° ESE visible
03 Jun 8.8 21:33:27 10° WNW 21:38:48 27° W 21:38:48 27° W visible
